BAD234 KJFK-KBOS

Flight info

Callsign BAD234
Flight time N/A
Altitude 17000
Route EEGOR/N0315F160 BDR/N0314F150 MAD YANTC T224 WOONS
Aircraft DH8D/M-SDE2E3FGRY/H

Departure

Time 2026-05-07 23:03
Airport John F. Kennedy International Airport (KJFK)

Arrival

Time N/A
Airport Boston Logan International Airport (KBOS)
Time Latitude Longitude Altitude Speed Heading
2026-05-07 22:36 40.63506 -73.77996 14 ft 0 kts 263°
2026-05-07 22:54 40.63506 -73.77995 14 ft 1 kts 263°
2026-05-07 22:55 40.63507 -73.77988 14 ft 0 kts 264°
2026-05-07 22:55 40.63507 -73.77981 14 ft 2 kts 264°
2026-05-07 22:55 40.63511 -73.77948 14 ft 2 kts 233°
2026-05-07 22:55 40.63533 -73.77926 14 ft 7 kts 214°
2026-05-07 22:56 40.63571 -73.77895 15 ft 5 kts 210°
2026-05-07 22:56 40.63593 -73.77885 15 ft 1 kts 180°
2026-05-07 22:56 40.63588 -73.77882 15 ft 0 kts 151°
2026-05-07 22:58 40.63586 -73.77880 15 ft 3 kts 146°
2026-05-07 22:58 40.63564 -73.77841 15 ft 8 kts 124°
2026-05-07 22:59 40.63524 -73.77818 14 ft 8 kts 197°
2026-05-07 22:59 40.63475 -73.77850 14 ft 9 kts 209°
2026-05-07 22:59 40.63423 -73.77891 14 ft 13 kts 213°
2026-05-07 22:59 40.63364 -73.77944 14 ft 13 kts 214°
2026-05-07 23:00 40.63303 -73.77985 14 ft 7 kts 199°
2026-05-07 23:00 40.63298 -73.77987 14 ft 0 kts 199°
2026-05-07 23:01 40.63286 -73.77992 14 ft 9 kts 197°
2026-05-07 23:01 40.63196 -73.78033 14 ft 11 kts 238°
2026-05-07 23:02 40.63196 -73.78061 14 ft 0 kts 301°
2026-05-07 23:02 40.63197 -73.78063 14 ft 3 kts 301°
2026-05-07 23:02 40.63262 -73.78200 14 ft 54 kts 305°
2026-05-07 23:03 40.63555 -73.78836 14 ft 122 kts 300°
2026-05-07 23:03 40.63975 -73.79754 68 ft 154 kts 306°
2026-05-07 23:03 40.64458 -73.80736 415 ft 163 kts 307°
2026-05-07 23:03 40.65047 -73.82213 886 ft 181 kts 282°
2026-05-07 23:04 40.64951 -73.83321 1083 ft 195 kts 250°